CAPE
2 1 2 2 2 1 4 2 3 3 1 0 0 0 0 0 0 0 0 0 0 0 0 0 0 0 0 0 0 0 0 0 0 0 0 0 0 0 0 0 0 0 0 0 15
0 1 1 1 0 1 0 4 3 2 1 0 0 0 1 1 0 0 0 0 0 0 0 0 0 0 0 0 0 0 0 0 0 0 0 0 0 0 0 0 0 0 0 0 0
3 4 2 2 2 2 1 1 2 1 0 0 0 0 0 0 0 0 0 0 0 0 0 0 0 0 0 0 0 0 0 0 0 0 0 0 0 0 0 0 0 0 0 0 0
1 2 3 3 2 0 0 2 2 1 0 0 0 0 1 0 0 0 0 0 0 0 0 0 0 0 0 0 0 0 0 0 0 0 0 0 0 0 0 0 0 0 0 0 0
1 2 2 1 1 0 0 1 1 1 0 0 0 0 0 0 0 0 0 0 0 0 0 0 0 0 0 0 0 0 0 0 0 0 0 0 0 0 0 0 0 0 0 0 0
1 1 1 2 1 1 0 0 0 0 0 0 0 0 0 0 0 0 0 0 0 0 0 0 0 0 0 0 0 0 0 0 0 0 0 0 0 0 0 0 0 0 0 0 0
1 1 1 0 1 1 0 1 0 0 0 0 0 0 0 0 0 0 0 0 0 0 0 0 0 0 0 0 0 0 0 0 0 0 0 0 0 0 0 0 0 0 0 0 0
2 1 1 1 1 0 1 0 0 0 0 0 0 0 0 0 0 0 0 0 0 0 0 0 0 0 0 0 0 0 0 0 0 0 0 0 0 0 0 0 0 0 0 0 0
1 1 1 1 1 0 0 0 0 0 0 0 0 0 0 0 0 0 0 0 0 0 0 0 0 0 0 0 0 0 0 0 0 0 0 0 0 0 0 0 0 0 0 0 0
2 2 0 0 0 0 0 0 0 0 0 0 0 0 0 0 0 0 0 0 0 0 0 0 0 0 0 0 0 0 0 0 0 0 0 0 0 0 0 0 0 0 0 0 0
1 2 0 0 0 0 0 0 0 0 0 0 0 0 0 0 0 0 0 0 0 0 0 0 0 0 0 0 0 0 0 0 0 0 0 0 0 0 0 0 0 0 0 0 0
2 2 0 0 0 0 0 0 0 0 0 0 0 0 0 0 0 0 0 0 0 0 0 0 0 0 0 0 0 0 0 0 0 0 0 0 0 0 0 0 0 0 0 0 0
2 0 0 0 0 0 0 0 0 0 0 0 0 0 0 0 0 0 0 0 0 0 0 0 0 0 0 0 0 0 0 0 0 0 0 0 0 0 0 0 0 0 0 0 0
1 0 0 0 0 0 0 0 0 0 0 0 0 0 0 0 0 0 0 0 0 0 0 0 0 0 0 0 0 0 0 0 0 0 0 0 0 0 0 0 0 0 0 0 0
0 0 0 0 0 0 0 0 0 0 0 0 0 0 0 0 0 0 0 0 0 0 0 0 0 0 0 0 0 0 0 0 0 0 0 0 0 0 0 0 0 0 0 0 0
1 1 0 0 0 0 0 0 0 0 0 0 0 0 0 0 0 0 0 0 0 0 0 0 0 0 0 0 0 0 0 0 0 0 0 0 0 0 0 0 0 0 0 0 0
0 0 0 0 0 0 0 0 0 0 0 0 0 0 0 0 0 0 0 0 0 0 0 0 0 0 0 0 0 0 0 0 0 0 0 0 0 0 0 0 0 0 0 0 0
0 0 0 0 0 0 0 0 0 0 0 0 0 0 0 0 0 0 0 0 0 0 0 0 0 0 0 0 0 0 0 0 0 0 0 0 0 0 0 0 0 0 0 0 0
0 0 0 0 0 0 0 0 0 0 0 0 0 0 0 0 0 0 0 0 0 0 0 0 0 0 0 0 0 0 0 0 0 0 0 0 0 0 0 0 0 0 0 0 0
0 0 0 0 0 0 0 0 0 0 0 0 0 0 0 0 0 0 0 0 0 0 0 0 0 0 0 0 0 0 0 0 0 0 0 0 0 0 0 0 0 0 0 0 0
0 0 0 0 0 0 0 0 0 0 0 0 0 0 0 0 0 0 0 0 0 0 0 0 0 0 0 0 0 0 0 0 0 0 0 0 0 0 0 0 0 0 0 0 0
0 0 0 0 0 0 0 0 0 0 0 0 0 0 0 0 0 0 0 0 0 0 0 0 0 0 0 0 0 0 0 0 0 0 0 0 0 0 0 0 0 0 0 0 0
0 0 0 0 0 0 0 0 0 0 0 0 0 0 0 0 0 0 0 0 0 2 8 2 0 0 0 0 0 0 0 0 0 0 0 0 0 0 0 0 0 0 0 0 0
0 0 0 0 0 0 0 0 0 0 0 0 0 0 0 0 0 0 0 0 0 2 21 21 1 0 0 0 0 0 0 0 0 0 0 0 0 0 0 0 0 0 0 0 0
0 0 0 0 0 0 0 0 0 0 0 0 0 0 0 0 0 0 0 0 0 0 0 2 0 0 0 0 0 0 0 0 0 0 0 0 0 0 0 0 0 0 0 0 0
0 0 0 0 0 0 0 0 0 0 0 0 0 0 0 0 0 0 0 0 0 0 0 4 3 7 1 0 0 0 0 0 0 0 0 0 0 0 0 0 0 0 0 0 0
0 0 0 0 0 0 0 0 0 0 0 0 0 0 0 0 0 0 0 0 0 0 1 2 2 2 0 0 0 0 0 0 0 0 0 0 0 0 0 0 0 0 0 0 0
CIN
-2 0 -2 -1 -1 0 0 0 0 0 0 0 0 0 0 0 0 0 0 0 0 0 0 0 0 0 0 0 0 0 0 0 0 0 0 0 0 0 0 0 0 0 0 0 -253
0 -2 0 0 0 -1 0 0 0 0 0 0 0 0 0 0 0 0 0 0 0 0 0 0 0 0 0 0 0 0 0 0 0 0 0 0 0 0 0 0 0 0 0 0 0
0 0 0 0 0 0 0 0 0 0 0 0 0 0 0 0 0 0 0 0 0 0 0 0 0 0 0 0 0 0 0 0 0 0 0 0 0 0 0 0 0 0 0 0 0
0 -1 0 0 0 0 -1 0 0 0 0 0 0 0 0 0 0 0 0 0 0 0 0 0 0 0 0 0 0 0 0 0 0 0 0 0 0 0 0 0 0 0 0 0 0
0 -1 0 0 -1 0 0 -1 0 0 0 0 0 0 0 0 0 0 0 0 0 0 0 0 0 0 0 0 0 0 0 0 0 0 0 0 0 0 0 0 0 0 0 0 0
0 0 0 0 -1 0 0 0 0 0 0 0 0 0 0 0 0 0 0 0 0 0 0 0 0 0 0 0 0 0 0 0 0 0 0 0 0 0 0 0 0 0 0 0 0
0 0 0 0 0 0 0 0 0 0 0 0 0 0 0 0 0 0 0 0 0 0 0 0 0 0 0 0 0 0 0 0 0 0 0 0 0 0 0 0 0 0 0 0 0
0 0 0 0 0 0 0 0 0 0 0 0 0 0 0 0 0 0 0 0 0 0 0 0 0 0 0 0 0 0 0 0 0 0 0 0 0 0 0 0 0 0 0 0 0
-1 0 0 0 -1 0 0 0 0 0 0 0 0 0 0 0 0 0 0 0 0 0 0 0 0 0 0 0 0 0 0 0 0 0 0 0 0 0 0 0 0 0 0 0 0
0 0 0 0 0 0 0 0 0 0 0 0 0 0 0 0 0 0 0 0 0 0 0 0 0 0 0 0 0 0 0 0 0 0 0 0 0 0 0 0 0 0 0 0 0
0 0 0 0 0 0 0 0 0 0 0 0 0 0 0 0 0 0 0 0 0 0 0 0 0 0 0 0 0 0 0 0 0 0 0 0 0 0 0 0 0 0 0 0 0
0 0 0 0 0 0 0 0 0 0 0 0 0 0 0 0 0 0 0 0 0 0 0 0 0 0 0 0 0 0 0 0 0 0 0 0 0 0 0 0 0 0 0 0 0
0 0 0 0 0 0 0 0 0 0 0 0 0 0 0 0 0 0 0 0 0 0 0 0 0 0 0 0 0 0 0 0 0 0 0 0 0 0 0 0 0 0 0 0 0
0 0 0 0 0 0 0 0 0 0 0 0 0 0 0 0 0 0 0 0 0 0 0 0 0 0 0 0 0 0 0 0 0 0 0 0 0 0 0 0 0 0 0 0 0
0 0 0 0 0 0 0 0 0 0 0 0 0 0 0 0 0 0 0 0 0 0 0 0 0 0 0 0 0 0 0 0 0 0 0 0 0 0 0 0 0 0 0 0 0
0 0 0 0 0 0 0 0 0 0 0 0 0 0 0 0 0 0 0 0 0 0 0 0 0 0 0 0 0 0 0 0 0 0 0 0 0 0 0 0 0 0 0 0 0
0 0 0 0 0 0 0 0 0 0 0 0 0 0 0 0 0 0 0 0 0 0 0 0 0 0 0 0 0 0 0 0 0 0 0 0 0 0 0 0 0 0 0 0 0
0 0 0 0 0 0 0 0 0 0 0 0 0 0 0 0 0 0 0 0 0 0 0 0 0 0 0 0 0 0 0 0 0 0 0 0 0 0 0 0 0 0 0 0 0
0 0 0 0 0 0 0 0 0 0 0 0 0 0 0 0 0 0 0 0 0 0 0 0 0 0 0 0 0 0 0 0 0 0 0 0 0 0 0 0 0 0 0 0 0
0 0 0 0 0 0 0 0 0 0 0 0 0 0 0 0 0 0 0 0 0 0 0 0 0 0 0 0 0 0 0 0 0 0 0 0 0 0 0 0 0 0 0 0 0
0 0 0 0 0 0 0 0 0 0 0 0 0 0 0 0 0 0 0 0 0 0 0 0 0 0 0 0 0 0 0 0 0 0 0 0 0 0 0 0 0 0 0 0 0
0 0 0 0 0 0 0 0 0 0 0 0 0 0 0 0 0 0 0 0 0 0 0 0 0 0 0 0 0 0 0 0 0 0 0 0 0 0 0 0 0 0 0 0 0
0 0 0 0 0 0 0 0 0 0 0 0 0 0 0 0 0 0 0 0 0 -21 -15 -21 -1 0 0 0 0 0 0 0 0 0 0 0 0 0 0 0 0 0 0 0 0
0 0 0 0 0 0 0 0 0 0 0 0 0 0 0 0 0 0 0 0 0 -14 -22 -25 -6 0 0 0 0 0 0 0 0 -1 0 0 0 0 0 0 0 0 0 0 0
0 0 0 0 0 0 0 0 0 0 0 0 0 0 0 0 0 0 0 0 0 0 -6 -13 -6 0 0 0 -2 0 0 0 0 0 0 0 0 0 0 0 0 0 0 0 0
0 0 0 0 0 0 0 0 0 0 0 0 0 0 0 0 0 0 0 0 0 0 0 -21 -4 -10 -8 -9 0 0 0 0 0 0 0 0 0 0 0 0 0 0 0 0 0
0 0 0 0 0 0 0 0 0 0 0 0 0 0 0 0 0 0 0 0 0 0 -1 -5 -3 -6 0 0 -1 0 0 0 0 0 0 0 0 0 0 0 0 0 0 0 0
Wind_Speed
27 27 27 27 27 27 27 27 27 27 27 28 29 30 31 32 33 26 21 16 20 21 23 26 25 27 25 29 27 25 37 49 46 36 32 30 31 27 25 28 26 20 19 23 22
28 27 27 27 27 27 27 27 27 27 27 28 29 30 30 29 25 21 16 13 14 18 21 24 25 24 29 30 29 33 40 42 36 35 37 37 35 35 32 34 29 26 25 23 21
26 27 26 26 27 27 27 27 27 27 27 28 28 28 27 25 19 20 15 10 13 14 18 20 22 22 29 28 30 33 45 38 32 32 35 38 38 36 37 41 27 31 31 30 23
24 26 25 26 26 26 26 26 27 27 27 27 27 26 25 18 17 17 14 12 13 14 17 16 18 21 26 30 29 36 34 34 35 37 40 44 40 44 43 43 36 33 34 31 29
23 24 24 25 26 26 24 25 27 27 27 27 26 25 19 18 15 17 13 13 14 15 17 16 16 17 24 24 28 34 34 34 32 34 39 43 48 51 53 41 38 34 34 34 32
24 24 23 22 22 21 19 17 15 15 23 26 24 23 18 17 15 17 13 13 14 15 16 15 17 17 18 22 24 26 31 35 33 31 33 36 43 44 51 35 40 40 39 35 33
24 24 24 23 22 21 19 16 12 9 6 10 18 18 17 13 16 20 15 16 15 15 18 16 17 18 18 22 21 27 34 36 36 36 35 30 43 51 47 38 45 37 35 33 31
24 27 25 25 24 22 20 17 12 7 6 9 12 14 12 13 20 22 16 19 17 18 15 19 19 19 19 20 22 24 26 32 26 24 29 30 44 31 28 29 35 37 35 34 32
21 25 27 26 25 22 21 19 7 12 13 13 14 14 13 20 15 17 16 18 17 18 18 17 16 18 19 21 23 21 29 29 27 23 26 27 35 28 32 32 36 36 37 37 36
14 18 23 28 24 23 20 19 19 18 18 15 14 15 13 15 16 21 17 17 19 20 16 16 17 19 20 22 27 28 28 27 28 27 29 34 38 35 35 34 34 36 38 37 36
10 12 16 17 24 24 23 18 21 20 18 14 14 13 12 16 17 15 17 17 18 18 19 19 18 21 21 21 22 25 26 28 29 27 34 39 43 42 39 38 37 36 36 38 38
9 10 10 10 13 15 20 20 21 19 21 15 10 8 7 14 18 16 12 14 18 21 19 20 22 18 21 22 23 23 26 29 29 30 34 41 50 45 42 42 36 35 38 37 37
8 8 8 9 8 17 19 21 23 17 18 19 17 16 15 12 15 15 12 15 18 19 17 18 17 18 19 24 26 26 28 30 32 32 33 37 46 39 30 28 32 37 35 40 44
7 3 1 5 16 15 16 17 22 16 17 17 17 16 15 15 17 13 9 13 17 18 17 18 17 21 25 28 24 30 23 28 32 36 41 32 48 43 36 33 31 39 41 38 39
6 4 9 14 16 17 14 5 16 16 12 14 16 16 15 13 18 17 13 12 11 17 19 21 24 27 26 23 21 25 26 29 33 37 37 35 40 36 35 37 32 38 37 39 40
6 5 15 18 16 15 12 14 16 15 12 15 15 18 19 17 18 17 15 14 14 16 18 22 22 21 19 20 22 24 28 34 32 31 35 30 32 38 31 28 38 34 39 37 37
6 13 17 17 17 16 16 17 16 13 16 14 15 19 17 19 19 22 18 16 16 21 24 23 20 18 19 23 24 25 31 35 34 31 34 28 39 41 39 45 41 41 38 36 36
3 21 18 16 14 18 18 16 14 15 15 16 19 20 15 22 19 22 19 18 18 18 21 24 28 20 20 23 28 27 23 28 36 35 37 38 40 39 33 36 36 32 35 36 40
19 19 19 19 17 19 16 15 14 15 17 18 21 19 18 20 21 21 19 16 16 16 22 24 25 20 22 26 22 22 25 22 31 34 40 35 37 44 37 32 30 33 36 40 41
19 19 20 19 18 18 17 15 13 14 18 16 16 16 18 20 21 21 20 16 16 15 16 20 28 23 26 22 20 22 18 24 24 35 38 35 41 40 38 31 34 33 39 41 42
21 19 20 21 18 20 18 15 14 12 18 13 13 15 17 20 18 19 18 18 15 13 16 18 20 25 24 21 22 18 19 20 22 24 34 42 37 23 28 34 34 35 41 42 41
22 21 21 21 20 19 18 17 16 15 16 14 13 13 15 17 19 18 17 15 15 15 18 16 19 28 29 26 22 18 18 16 23 27 25 31 40 19 20 29 32 42 46 43 36
27 21 21 22 20 21 20 18 16 16 17 15 15 16 17 18 21 16 16 17 16 13 16 14 20 29 28 17 15 14 13 16 19 21 25 30 27 26 35 45 47 49 42 40 36
26 24 24 23 21 21 22 20 18 18 15 17 16 17 19 19 17 20 19 20 20 17 18 15 17 24 29 24 22 29 25 20 17 24 27 14 34 33 45 40 41 36 41 42 40
27 23 23 23 24 24 21 20 20 20 18 19 18 19 22 22 22 20 19 20 21 23 22 17 31 26 23 24 27 29 32 28 13 13 12 27 28 41 35 39 32 34 36 41 41
26 25 24 22 23 23 21 21 21 21 20 20 18 21 22 21 22 25 22 21 20 21 16 14 27 22 31 26 23 15 44 40 17 12 15 21 21 13 23 24 26 30 40 42 38
26 23 23 22 23 24 22 21 22 24 20 15 21 25 24 24 22 19 17 16 12 12 14 11 23 26 38 25 31 33 36 11 14 15 12 13 11 24 34 26 25 36 42 39 34
Wind_Direction
323 320 317 315 314 314 314 314 314 315 314 311 308 307 307 307 307 316 311 310 307 291 293 288 284 274 272 266 266 269 260 253 254 262 264 265 266 268 270 267 279 287 291 300 307
321 316 313 311 311 310 310 311 312 314 314 312 311 310 310 313 319 327 337 329 315 308 296 288 279 275 264 264 262 258 260 260 263 263 265 265 264 265 264 265 271 281 284 301 306
315 312 307 303 303 303 305 305 307 310 311 311 311 311 314 319 330 338 353 2 339 331 306 290 283 277 264 264 260 261 255 262 266 266 270 265 265 263 261 255 269 278 282 287 296
309 307 303 301 295 293 291 290 295 304 307 309 311 313 312 337 328 343 8 13 0 347 317 299 287 274 267 261 264 261 265 269 272 267 264 258 265 261 257 255 267 276 279 281 284
306 304 301 298 295 288 280 280 285 295 302 304 313 315 333 333 339 337 357 3 357 344 318 306 299 284 270 274 270 263 266 271 274 273 264 263 260 256 255 262 267 271 277 278 278
305 303 300 295 288 280 268 254 241 234 275 312 317 318 332 325 334 333 351 351 342 334 325 316 303 299 289 282 275 274 271 271 272 274 271 268 263 264 251 266 268 270 272 276 277
304 303 300 297 291 284 272 253 229 203 151 38 348 343 332 331 323 317 337 326 335 331 312 318 312 301 298 289 287 280 271 272 270 269 268 272 262 257 261 276 263 267 271 274 278
300 304 300 299 296 288 276 259 231 178 95 60 34 6 360 338 312 302 332 314 321 321 320 308 310 305 298 298 293 283 281 269 278 281 272 264 260 269 275 275 267 265 265 271 274
294 299 303 300 299 292 283 273 208 59 49 46 28 28 12 309 333 325 332 321 324 322 316 314 317 305 304 295 288 288 271 275 276 290 281 270 266 274 280 277 271 269 269 268 271
291 289 295 304 298 296 287 351 37 36 34 39 31 20 31 6 345 317 329 318 317 313 321 320 312 298 299 292 277 278 279 281 279 284 285 276 272 277 280 281 278 276 273 271 270
298 286 283 280 296 298 5 26 9 7 15 14 19 24 31 4 354 348 329 333 326 324 306 312 305 295 296 298 293 288 285 282 285 290 288 280 275 278 279 279 278 279 277 275 273
302 289 278 258 258 303 24 19 14 11 359 24 35 30 46 16 354 354 7 354 333 318 315 308 298 300 302 299 295 293 289 287 290 293 293 286 275 280 279 276 278 279 280 279 281
315 290 271 245 214 60 48 30 8 33 24 13 25 19 15 39 12 3 14 355 336 331 331 315 311 309 307 302 295 293 291 293 291 297 298 292 280 284 291 286 281 283 282 281 280
340 347 169 190 81 80 65 46 17 47 40 31 25 25 34 26 0 16 20 356 340 332 335 324 324 315 304 298 302 292 301 298 296 297 288 303 278 284 286 286 287 287 284 284 284
337 46 79 86 70 61 60 123 50 54 66 54 45 39 23 21 360 359 6 348 337 331 331 315 313 310 305 306 308 301 306 302 300 296 294 294 285 283 287 289 292 293 291 289 287
321 70 70 66 64 57 58 63 56 55 69 43 40 21 10 6 359 351 350 344 342 329 324 317 322 319 314 314 312 311 305 302 303 299 290 298 290 285 292 292 300 298 298 295 292
305 65 71 68 54 45 48 49 44 56 29 36 24 9 10 1 358 351 344 335 324 320 314 319 320 324 321 306 313 313 306 295 293 293 291 303 294 288 293 290 295 298 297 296 298
290 52 60 60 53 40 39 50 44 37 29 15 6 359 7 360 356 351 349 338 340 332 320 315 308 313 316 308 305 307 307 296 289 290 293 302 292 294 307 305 302 304 300 300 299
41 43 45 39 42 36 46 40 39 34 21 12 2 5 3 358 354 350 348 341 337 337 321 319 315 319 313 308 307 307 302 309 297 300 295 298 301 300 305 310 308 309 305 300 301
30 28 32 32 37 37 37 34 38 34 17 14 10 9 4 357 353 352 348 348 341 338 340 328 315 315 312 309 304 301 312 304 306 298 297 304 304 301 305 310 310 311 314 308 307
18 20 25 22 35 29 27 28 23 21 10 15 11 360 356 354 355 352 350 346 339 339 337 334 322 314 314 304 301 303 303 310 313 308 304 305 310 329 318 314 311 310 314 312 309
12 11 16 19 17 21 19 18 15 8 10 8 4 353 351 352 346 344 341 343 353 341 332 332 324 307 306 302 301 299 304 311 307 311 312 312 307 329 334 321 313 302 310 311 311
6 10 14 14 11 9 9 8 8 12 7 7 -0 359 355 348 345 346 340 343 343 339 336 337 322 304 305 316 316 310 322 321 318 319 313 309 310 326 315 302 305 303 307 309 308
7 6 5 10 10 6 2 3 7 9 5 3 354 351 348 341 336 336 337 340 337 334 329 329 310 299 289 293 302 295 305 308 312 314 316 279 261 266 292 319 318 322 310 303 304
14 11 7 1 0 357 0 358 353 356 3 358 356 354 348 341 339 329 330 335 329 323 315 314 280 295 295 293 296 298 296 300 283 261 286 260 258 275 275 321 328 328 325 310 298
13 12 7 2 360 359 359 357 356 356 357 351 346 347 343 336 332 322 323 330 328 326 325 330 297 302 289 295 301 285 270 254 234 258 267 259 259 280 335 338 336 337 325 311 306
10 10 10 6 3 359 359 358 357 353 355 355 351 340 333 331 336 327 317 311 291 308 319 320 303 299 272 304 299 272 275 268 294 304 315 316 310 330 321 337 336 324 324 313 313